EW9733 Weather Reports


time (UTC)temp
C
wind
direction
speed
KPH
gust
KPH
rain 1hr
cm
rain 24hr
cm
rain mn
cm
humidity
%
barometer
mb
20260905151548 20 45 0.0 12.9 0.00 0.03 0.03 76 1008.8
20260905150046 21 31 0.0 22.5 0.00 0.03 0.03 74 1008.6
20260905144551 22 38 0.0 8.0 0.00 0.03 0.03 74 1008.5
20260905143042 21 67 1.6 12.9 0.00 0.03 0.03 74 1008.2
20260905141602 21 90 0.0 4.8 0.00 0.03 0.03 76 1008.4
20260905140048 21 67 0.0 8.0 0.00 0.03 0.03 76 1008.6
20260905134534 21 306 0.0 12.9 0.00 0.03 0.03 79 1008.5
20260905133042 20 92 4.8 11.3 0.00 0.03 0.03 81 1008.4
20260905131539 20 194 1.6 9.7 0.00 0.03 0.03 84 1008.2
20260905130023 18 90 4.8 16.1 0.03 0.03 0.03 89 1008.2
20260905124517 18 44 0.0 14.5 0.03 0.03 0.03 93 1008.1
20260905123013 17 355 1.6 9.7 0.03 0.03 0.03 94 1008.0
20260905121509 16 58 0.0 6.4 0.03 0.03 0.03 94 1007.8
20260905120006 16 131 0.0 4.8 0.00 0.00 0.00 95 1007.8
20260905114626 15 163 0.0 3.2 0.00 0.00 0.00 94 1007.8
20260905113055 15 91 0.0 0.0 0.00 0.00 0.00 94 1007.7
20260905111553 14 91 0.0 0.0 0.00 0.00 0.00 93 1007.5
20260905110048 14 91 0.0 0.0 0.00 0.00 0.00 93 1007.2
20260905104547 13 91 0.0 0.0 0.00 0.00 0.00 93 1007.0
20260905103045 13 91 0.0 0.0 0.00 0.00 0.00 93 1007.0
20260905101545 13 91 0.0 0.0 0.00 0.00 0.00 93 1007.0
20260905100101 13 91 0.0 0.0 0.00 0.00 0.00 93 1006.9
20260905094542 13 91 0.0 0.0 0.00 0.00 0.00 93 1006.9
20260905093041 14 91 0.0 0.0 0.00 0.00 0.00 92 1007.0
20260905091552 14 91 0.0 0.0 0.00 0.00 0.00 92 1006.9
20260905090039 14 91 0.0 0.0 0.00 0.00 0.00 92 1006.9
20260905084536 14 91 0.0 0.0 0.00 0.00 0.00 92 1006.8
20260905083036 14 91 0.0 0.0 0.00 0.00 0.00 92 1006.7
20260905081534 15 91 0.0 0.0 0.00 0.00 0.00 92 1006.8
20260905080039 15 91 0.0 0.0 0.00 0.00 0.00 92 1006.8
20260905074543 15 91 0.0 0.0 0.00 0.00 0.00 92 1006.7
20260905073050 15 91 0.0 0.0 0.00 0.00 0.00 92 1006.7
20260905071531 15 91 0.0 0.0 0.00 0.00 0.00 92 1006.8
20260905070126 15 91 0.0 0.0 0.00 0.00 0.00 92 1006.9
20260905064525 15 91 0.0 0.0 0.00 0.00 0.00 92 1007.2
20260905063025 15 91 0.0 0.0 0.00 0.00 0.00 91 1007.2
20260905061522 15 91 0.0 0.0 0.00 0.00 0.00 91 1007.3
20260905060020 16 91 0.0 0.0 0.00 0.00 0.00 91 1007.3
20260905054518 16 91 0.0 0.0 0.00 0.00 0.00 91 1007.3
20260905053017 16 91 0.0 0.0 0.00 0.00 0.00 91 1007.4
20260905051516 16 91 0.0 0.0 0.00 0.00 0.00 91 1007.3
20260905050017 16 91 0.0 0.0 0.00 0.00 0.00 90 1007.1
20260905044512 16 91 0.0 0.0 0.00 0.00 0.00 90 1007.1
20260905043011 16 91 0.0 0.0 0.00 0.00 0.00 90 1007.1
20260905041510 17 91 0.0 0.0 0.00 0.00 0.00 90 1007.1
20260905040009 17 91 0.0 0.0 0.00 0.00 0.00 89 1007.2
20260905034506 17 91 0.0 0.0 0.00 0.00 0.00 89 1007.3
20260905033017 17 91 0.0 0.0 0.00 0.00 0.00 89 1007.2
20260905031506 17 91 0.0 0.0 0.00 0.00 0.00 89 1007.3
20260905030007 17 91 0.0 0.0 0.00 0.00 0.00 88 1007.2
20260905024505 18 91 0.0 0.0 0.00 0.00 0.00 87 1007.2
20260905023023 18 91 0.0 0.0 0.00 0.00 0.00 87 1007.3
20260905021506 18 91 0.0 0.0 0.00 0.00 0.00 87 1007.3
20260905020003 18 91 0.0 0.0 0.00 0.00 0.00 87 1007.5
20260905014503 19 91 0.0 0.0 0.00 0.00 0.00 86 1007.7
20260905013002 19 91 0.0 0.0 0.00 0.00 0.00 86 1007.6
20260905011503 20 91 0.0 0.0 0.00 0.00 0.00 85 1007.8
20260905010001 20 91 0.0 0.0 0.00 0.00 0.00 85 1007.9
20260905004502 20 91 0.0 0.0 0.00 0.00 0.00 84 1007.7
20260905003100 21 91 0.0 0.0 0.00 0.00 0.00 83 1007.6
20260905003001 21 91 0.0 0.0 0.00 0.00 0.00 83 1007.6
20260905001609 21 91 0.0 0.0 0.00 0.00 0.00 83 1007.5
20260905000116 21 91 0.0 0.0 0.00 0.00 0.00 81 1007.4
20260904234559 22 91 0.0 1.6 0.00 0.00 0.00 80 1007.2
20260904233058 22 91 0.0 1.6 0.00 0.00 0.00 78 1007.1
20260904231601 23 91 0.0 1.6 0.00 0.00 0.00 75 1007.0
20260904230057 23 49 0.0 3.2 0.00 0.00 0.00 74 1007.0
20260904224601 25 49 0.0 0.0 0.00 0.00 0.00 71 1006.9
20260904223055 25 49 0.0 1.6 0.00 0.00 0.00 69 1006.9
20260904221551 26 49 0.0 4.8 0.00 0.00 0.00 67 1006.7
20260904220109 26 49 0.0 3.2 0.00 0.00 0.00 63 1006.7
20260904214549 26 49 0.0 4.8 0.00 0.00 0.00 61 1006.5
20260904213049 26 11 0.0 1.6 0.00 0.00 0.00 62 1006.5
20260904211555 26 297 0.0 0.0 0.00 0.00 0.00 60 1006.4
20260904210100 26 298 0.0 1.6 0.00 0.00 0.00 61 1006.5
20260904204550 27 299 0.0 3.2 0.00 0.00 0.00 58 1006.4
20260904203047 27 42 0.0 6.4 0.00 0.00 0.00 55 1006.5
20260904201546 28 219 0.0 4.8 0.00 0.00 0.00 54 1006.6
20260904200046 27 318 0.0 4.8 0.00 0.00 0.00 59 1006.4
20260904194553 27 188 0.0 4.8 0.00 0.00 0.00 60 1006.6
20260904193044 27 43 1.6 8.0 0.00 0.00 0.00 55 1006.5
20260904191548 28 51 4.8 16.1 0.00 0.00 0.00 53 1006.5
20260904190042 27 76 0.0 3.2 0.00 0.00 0.00 59 1006.7
20260904184547 28 111 1.6 12.9 0.00 0.00 0.00 57 1006.6
20260904183042 27 32 1.6 9.7 0.00 0.00 0.00 55 1006.6
20260904181549 28 342 1.6 12.9 0.00 0.00 0.00 54 1006.7
20260904180038 28 32 0.0 4.8 0.00 0.00 0.00 56 1006.9
20260904174559 28 62 0.0 8.0 0.00 0.00 0.00 58 1006.8
20260904173037 28 286 4.8 14.5 0.00 0.00 0.00 57 1006.9
20260904171535 27 248 0.0 8.0 0.00 0.00 0.00 62 1007.1
20260904170031 27 327 0.0 4.8 0.00 0.00 0.00 65 1007.2
20260904164528 27 53 4.8 14.5 0.00 0.00 0.00 64 1007.3
20260904163027 26 249 0.0 9.7 0.00 0.00 0.00 65 1007.4
20260904161525 27 55 1.6 9.7 0.00 0.00 0.00 69 1007.6
20260904160024 26 279 1.6 8.0 0.00 0.00 0.00 65 1007.7
20260904154519 26 30 1.6 11.3 0.00 0.00 0.00 69 1007.8
20260904153023 25 266 1.6 6.4 0.00 0.00 0.00 71 1007.9